EW8201 Weather Reports


time (UTC)temp
F
wind
direction
speed
knots
gust
knots
rain 1hr
in
rain 24hr
in
rain mn
in
humidity
%
barometer
mb
20260504190042 54 298 12.2 19.1 0.00 0.00 0.00 34 1001.5
20260504184553 55 333 14.8 24.3 0.00 0.00 0.00 33 1001.4
20260504183040 56 309 13.0 23.5 0.00 0.00 0.00 34 1001.5
20260504181541 55 341 14.8 22.6 0.00 0.00 0.00 35 1001.3
20260504180038 55 338 13.9 21.7 0.00 0.00 0.00 35 1001.4
20260504174537 55 344 13.0 19.1 0.00 0.00 0.00 36 1001.5
20260504173038 55 325 12.2 21.7 0.00 0.00 0.00 37 1001.5
20260504171539 54 318 16.5 23.5 0.00 0.00 0.00 39 1001.5
20260504081546 48 36 13.9 22.6 0.00 0.00 0.00 54 1001.3
20260504050013 57 50 19.1 25.2 0.00 0.00 0.00 38 996.3
20260504044514 57 40 13.0 18.2 0.00 0.00 0.00 37 995.8
20260504043013 57 35 12.2 15.6 0.00 0.00 0.00 36 995.5
20260504041512 58 48 11.3 14.8 0.00 0.00 0.00 36 995.3
20260504040014 58 46 9.6 15.6 0.00 0.00 0.00 36 995.0
20260504034518 59 46 10.4 15.6 0.00 0.00 0.00 35 994.7
20260504033009 60 38 13.0 18.2 0.00 0.00 0.00 35 994.2
20260504031509 61 50 13.9 19.1 0.00 0.00 0.00 33 993.9
20260504030007 62 50 11.3 18.2 0.00 0.00 0.00 30 993.7
20260504024509 63 49 9.6 14.8 0.00 0.00 0.00 26 993.4
20260504023007 64 34 2.6 4.3 0.00 0.00 0.00 23 993.2
20260504021505 66 28 4.3 7.8 0.00 0.00 0.00 22 993.3
20260504020004 69 29 7.8 11.3 0.00 0.00 0.00 21 993.3
20260504014504 70 10 6.1 11.3 0.00 0.00 0.00 20 993.4
20260504013003 72 355 9.6 13.9 0.00 0.00 0.00 19 993.3
20260504011502 73 355 10.4 14.8 0.00 0.00 0.00 19 993.4
20260504010100 73 5 8.7 15.6 0.00 0.00 0.00 18 993.5
20260504004559 74 338 12.2 16.5 0.00 0.00 0.00 18 993.6
20260504003057 75 336 11.3 19.1 0.00 0.00 0.00 18 993.7
20260504001555 75 360 7.0 16.5 0.00 0.00 0.00 17 993.8
20260504000134 75 321 9.6 16.5 0.00 0.00 0.00 17 994.0
20260503234553 75 360 12.2 15.6 0.00 0.00 0.00 17 993.9
20260503233051 75 360 8.7 13.0 0.00 0.00 0.00 17 994.1
20260503231551 75 294 6.1 14.8 0.00 0.00 0.00 17 994.3
20260503230053 75 319 10.4 18.2 0.00 0.00 0.00 17 994.4
20260503224546 75 309 7.8 14.8 0.00 0.00 0.00 18 994.6
20260503223045 75 336 8.7 19.1 0.00 0.00 0.00 17 994.8
20260503221543 75 348 7.8 16.5 0.00 0.00 0.00 18 995.1
20260503220040 74 304 6.1 12.2 0.00 0.00 0.00 20 995.2
20260503214537 74 313 13.0 17.4 0.00 0.00 0.00 18 995.5
20260503213034 74 335 10.4 16.5 0.00 0.00 0.00 18 995.6
20260503211531 73 250 12.2 15.6 0.00 0.00 0.00 18 996.1
20260503210028 73 308 8.7 17.4 0.00 0.00 0.00 18 996.2
20260503204527 73 336 4.3 14.8 0.00 0.00 0.00 19 996.3
20260503203031 73 323 7.0 15.6 0.00 0.00 0.00 19 996.8
20260503201521 72 321 6.1 13.9 0.00 0.00 0.00 19 996.9
20260503200018 72 283 12.2 18.2 0.00 0.00 0.00 19 997.2
20260503194516 71 285 12.2 18.2 0.00 0.00 0.00 21 997.4
20260503193013 72 300 13.9 20.0 0.00 0.00 0.00 20 997.7
20260503191511 71 275 9.6 17.4 0.00 0.00 0.00 20 997.9